Joe Foss Field Airport Sioux Falls US
ICAO: KFSD
IATA: FSD
Category: Medium
Scheduled Services: Yes

Elevation: 1429 ft
TransAlt. 18000 ft.

Airport Communications:
SIOUX FALLS APP/DEP:125.8
ATIS:126.6
CTAF:118.3
SIOUX FALLS GND:121.9
HURON RDO:122.2
SIOUX FALLS TWR:118.3
UNICOM:122.95

KFSD Zoom In..

If you have problems with the map follow the link
https://www.worldairports.se/pages/airport.php?
ICAO=KFSD

Runways:

(A) RW 03 length 8999 ft width 150 ft
ILS 109.90 / hdg 30

(B) RW 09 length 3151 ft width 75 ft
---- / hdg 98

(C) RW 15 length 8000 ft width 150 ft
---- / hdg 150

(D) RW 21 length 8999 ft width 150 ft
ILS 111.10 / hdg 210

(E) RW 27 length 3151 ft width 75 ft
---- / hdg 278

(F) RW 33 length 8000 ft width 150 ft
---- / hdg 330

Location; KFSD
Day. 18 / Time. 04.04 Zulu
* Altimeter: 29.77
* Temperature: -03° c. -26.6°f.
* Wind from: 140° Speed 06 kn.
Dewpoint: -04° c.
Visibility: 3 Statute Miles.
Clouds: Overcast 1000 ft.
Conditions: Light Snow.Conditions: Mist.

KFSD 180404Z 14006KT 3SM -SN BR OVC010 M03/M04 A2977 RMK AO2 P0000 T10281044


Wind From 140°
Speed 06 kn.

 
 
jpsmedia worldairports.se 2020   terms of use